Time,TemperatureF,DewpointF,PressureIn,WindDirection,WindDirectionDegrees,WindSpeedMPH,WindSpeedGustMPH,Humidity,HourlyPrecipIn,Conditions,Clouds,dailyrainin,SoftwareType,DateUTC
2013-05-05 00:00:00,57.2,44.7,30.11,ENE,63,4.0,5.0,63,0.00,,,0.00,Wunderground v.1.15,2013-05-05 04:00:00,
2013-05-05 00:05:00,57.2,44.7,30.11,NE,45,4.0,5.0,63,0.00,,,0.00,Wunderground v.1.15,2013-05-05 04:05:00,
2013-05-05 00:10:00,57.1,44.6,30.11,ENE,64,4.0,4.0,63,0.00,,,0.00,Wunderground v.1.15,2013-05-05 04:10:00,
2013-05-05 00:15:00,57.2,44.3,30.11,NE,50,4.0,4.0,62,0.00,,,0.00,Wunderground v.1.15,2013-05-05 04:15:00,
2013-05-05 00:20:00,57.3,44.4,30.10,East,85,4.0,5.0,62,0.00,,,0.00,Wunderground v.1.15,2013-05-05 04:20:00,
2013-05-05 00:30:00,57.2,44.7,30.10,ENE,72,4.0,4.0,63,0.00,,,0.00,Wunderground v.1.15,2013-05-05 04:30:00,
2013-05-05 00:40:00,57.2,44.7,30.10,NE,49,4.0,4.0,63,0.00,,,0.00,Wunderground v.1.15,2013-05-05 04:40:00,
2013-05-05 00:45:00,57.1,44.6,30.10,ESE,113,5.0,5.0,63,0.00,,,0.00,Wunderground v.1.15,2013-05-05 04:45:00,
2013-05-05 00:50:00,57.1,44.6,30.10,East,88,4.0,4.0,63,0.00,,,0.00,Wunderground v.1.15,2013-05-05 04:50:00,
2013-05-05 01:00:00,57.0,44.9,30.10,East,91,3.0,3.0,64,0.00,,,0.00,Wunderground v.1.15,2013-05-05 05:00:00,
2013-05-05 01:10:00,57.0,44.9,30.11,East,88,4.0,4.0,64,0.00,,,0.00,Wunderground v.1.15,2013-05-05 05:10:00,
2013-05-05 01:15:00,56.8,45.2,30.10,East,85,3.0,4.0,65,0.00,,,0.00,Wunderground v.1.15,2013-05-05 05:15:00,
2013-05-05 01:25:00,56.8,45.2,30.10,SE,136,3.0,4.0,65,0.00,,,0.00,Wunderground v.1.15,2013-05-05 05:25:00,
2013-05-05 01:30:00,56.7,45.1,30.10,NE,53,3.0,3.0,65,0.00,,,0.00,Wunderground v.1.15,2013-05-05 05:30:00,
2013-05-05 01:40:00,56.6,45.4,30.10,ENE,74,3.0,3.0,66,0.00,,,0.00,Wunderground v.1.15,2013-05-05 05:40:00,
2013-05-05 01:45:00,56.5,45.3,30.10,ENE,77,3.0,3.0,66,0.00,,,0.00,Wunderground v.1.15,2013-05-05 05:45:00,
2013-05-05 01:55:00,56.3,45.5,30.10,ENE,72,2.0,3.0,67,0.00,,,0.00,Wunderground v.1.15,2013-05-05 05:55:00,
2013-05-05 02:00:00,56.2,45.4,30.10,ENE,66,2.0,4.0,67,0.00,,,0.00,Wunderground v.1.15,2013-05-05 06:00:00,
2013-05-05 02:10:00,56.3,45.5,30.10,ENE,74,2.0,2.0,67,0.00,,,0.00,Wunderground v.1.15,2013-05-05 06:10:00,
2013-05-05 02:15:00,56.2,45.4,30.10,ENE,67,2.0,2.0,67,0.00,,,0.00,Wunderground v.1.15,2013-05-05 06:15:00,
2013-05-05 02:25:00,56.2,45.8,30.10,NNE,25,2.0,2.0,68,0.00,,,0.00,Wunderground v.1.15,2013-05-05 06:25:00,
2013-05-05 02:30:00,56.1,46.1,30.09,ENE,75,2.0,3.0,69,0.00,,,0.00,Wunderground v.1.15,2013-05-05 06:30:00,
2013-05-05 02:40:00,56.1,45.7,30.09,ENE,68,2.0,2.0,68,0.00,,,0.00,Wunderground v.1.15,2013-05-05 06:40:00,
2013-05-05 02:50:00,56.3,45.9,30.09,ESE,110,2.0,4.0,68,0.00,,,0.00,Wunderground v.1.15,2013-05-05 06:50:00,
2013-05-05 02:55:00,56.4,46.0,30.09,East,92,2.0,4.0,68,0.00,,,0.00,Wunderground v.1.15,2013-05-05 06:55:00,
2013-05-05 03:00:00,56.4,46.0,30.09,ESE,102,2.0,3.0,68,0.00,,,0.00,Wunderground v.1.15,2013-05-05 07:00:00,
2013-05-05 03:10:00,56.4,46.4,30.09,East,85,2.0,2.0,69,0.00,,,0.00,Wunderground v.1.15,2013-05-05 07:10:00,
2013-05-05 03:20:00,56.2,46.5,30.09,ENE,67,1.0,1.0,70,0.00,,,0.00,Wunderground v.1.15,2013-05-05 07:20:00,
2013-05-05 03:25:00,56.0,46.4,30.09,ENE,74,1.0,2.0,70,0.00,,,0.00,Wunderground v.1.15,2013-05-05 07:25:00,
2013-05-05 03:30:00,56.0,46.4,30.09,ENE,71,2.0,4.0,70,0.00,,,0.00,Wunderground v.1.15,2013-05-05 07:30:00,
2013-05-05 03:40:00,55.9,46.3,30.09,ENE,77,2.0,2.0,70,0.00,,,0.00,Wunderground v.1.15,2013-05-05 07:40:00,
2013-05-05 03:45:00,55.7,46.1,30.09,East,79,1.0,2.0,70,0.00,,,0.00,Wunderground v.1.15,2013-05-05 07:45:00,
2013-05-05 03:55:00,55.9,46.3,30.09,ENE,66,2.0,3.0,70,0.00,,,0.00,Wunderground v.1.15,2013-05-05 07:55:00,
2013-05-05 04:00:00,56.4,46.4,30.09,East,79,3.0,3.0,69,0.00,,,0.00,Wunderground v.1.15,2013-05-05 08:00:00,
2013-05-05 04:10:00,56.5,46.8,30.09,East,86,3.0,3.0,70,0.00,,,0.00,Wunderground v.1.15,2013-05-05 08:10:00,
2013-05-05 04:15:00,56.4,46.7,30.09,East,96,3.0,3.0,70,0.00,,,0.00,Wunderground v.1.15,2013-05-05 08:15:00,
2013-05-05 04:25:00,56.4,46.7,30.09,ENE,70,2.0,3.0,70,0.00,,,0.00,Wunderground v.1.15,2013-05-05 08:25:00,
2013-05-05 04:35:00,56.3,47.0,30.09,East,84,2.0,6.0,71,0.00,,,0.00,Wunderground v.1.15,2013-05-05 08:35:00,
2013-05-05 04:40:00,56.3,47.0,30.09,ENE,72,3.0,3.0,71,0.00,,,0.00,Wunderground v.1.15,2013-05-05 08:40:00,
2013-05-05 04:50:00,56.2,46.5,30.09,NE,53,2.0,3.0,70,0.00,,,0.00,Wunderground v.1.15,2013-05-05 08:50:00,
2013-05-05 05:00:00,56.2,46.5,30.09,East,79,3.0,3.0,70,0.00,,,0.00,Wunderground v.1.15,2013-05-05 09:00:00,
2013-05-05 05:10:00,56.4,46.4,30.09,ENE,60,3.0,3.0,69,0.00,,,0.00,Wunderground v.1.15,2013-05-05 09:10:00,
2013-05-05 05:20:00,56.4,46.7,30.09,NE,45,2.0,2.0,70,0.00,,,0.00,Wunderground v.1.15,2013-05-05 09:20:00,
2013-05-05 05:25:00,56.4,46.4,30.09,East,85,2.0,4.0,69,0.00,,,0.00,Wunderground v.1.15,2013-05-05 09:25:00,
2013-05-05 05:35:00,56.5,46.4,30.09,ENE,73,3.0,5.0,69,0.00,,,0.00,Wunderground v.1.15,2013-05-05 09:35:00,
2013-05-05 05:45:00,56.4,46.4,30.09,ENE,75,2.0,3.0,69,0.00,,,0.00,Wunderground v.1.15,2013-05-05 09:45:00,
2013-05-05 05:55:00,56.4,46.4,30.09,East,79,4.0,8.0,69,0.00,,,0.00,Wunderground v.1.15,2013-05-05 09:55:00,
2013-05-05 06:00:00,56.3,46.6,30.09,East,101,3.0,3.0,70,0.00,,,0.00,Wunderground v.1.15,2013-05-05 10:00:00,
2013-05-05 06:10:00,55.9,46.6,30.09,ENE,77,2.0,2.0,71,0.00,,,0.00,Wunderground v.1.15,2013-05-05 10:10:00,
2013-05-05 06:20:00,55.8,46.5,30.09,ENE,76,2.0,4.0,71,0.00,,,0.00,Wunderground v.1.15,2013-05-05 10:20:00,
2013-05-05 06:30:00,55.7,46.4,30.10,ESE,113,3.0,3.0,71,0.00,,,0.00,Wunderground v.1.15,2013-05-05 10:30:00,
2013-05-05 06:35:00,55.7,46.4,30.10,East,100,3.0,3.0,71,0.00,,,0.00,Wunderground v.1.15,2013-05-05 10:35:00,
2013-05-05 06:45:00,55.8,46.5,30.10,East,97,3.0,6.0,71,0.00,,,0.00,Wunderground v.1.15,2013-05-05 10:45:00,
2013-05-05 06:50:00,55.9,46.3,30.10,East,83,3.0,3.0,70,0.00,,,0.00,Wunderground v.1.15,2013-05-05 10:50:00,
2013-05-05 07:00:00,56.2,46.2,30.11,ENE,68,2.0,2.0,69,0.00,,,0.00,Wunderground v.1.15,2013-05-05 11:00:00,
2013-05-05 07:10:00,56.2,46.5,30.11,ENE,75,2.0,5.0,70,0.00,,,0.00,Wunderground v.1.15,2013-05-05 11:10:00,
2013-05-05 07:15:00,56.2,46.2,30.11,SE,127,3.0,5.0,69,0.00,,,0.00,Wunderground v.1.15,2013-05-05 11:15:00,
2013-05-05 07:25:00,56.3,46.6,30.11,East,84,3.0,4.0,70,0.00,,,0.00,Wunderground v.1.15,2013-05-05 11:25:00,
2013-05-05 07:30:00,56.3,46.3,30.12,ENE,57,3.0,3.0,69,0.00,,,0.00,Wunderground v.1.15,2013-05-05 11:30:00,
2013-05-05 07:40:00,56.5,46.8,30.12,ENE,76,3.0,3.0,70,0.00,,,0.00,Wunderground v.1.15,2013-05-05 11:40:00,
2013-05-05 07:45:00,56.6,46.5,30.11,East,101,3.0,3.0,69,0.00,,,0.00,Wunderground v.1.15,2013-05-05 11:45:00,
2013-05-05 07:55:00,57.0,46.1,30.12,ENE,77,3.0,8.0,67,0.00,,,0.00,Wunderground v.1.15,2013-05-05 11:55:00,
2013-05-05 08:00:00,57.3,46.4,30.12,NE,47,3.0,3.0,67,0.00,,,0.00,Wunderground v.1.15,2013-05-05 12:00:00,
2013-05-05 08:10:00,57.5,45.8,30.12,East,93,3.0,3.0,65,0.00,,,0.00,Wunderground v.1.15,2013-05-05 12:10:00,
2013-05-05 08:20:00,57.9,46.2,30.12,ENE,77,2.0,2.0,65,0.00,,,0.00,Wunderground v.1.15,2013-05-05 12:20:00,
2013-05-05 08:25:00,57.9,45.4,30.12,ESE,108,3.0,3.0,63,0.00,,,0.00,Wunderground v.1.15,2013-05-05 12:25:00,
2013-05-05 08:35:00,58.1,46.0,30.12,ENE,77,3.0,5.0,64,0.00,,,0.00,Wunderground v.1.15,2013-05-05 12:35:00,
2013-05-05 08:40:00,58.3,46.2,30.13,East,85,3.0,3.0,64,0.00,,,0.00,Wunderground v.1.15,2013-05-05 12:40:00,
2013-05-05 08:50:00,58.5,45.9,30.13,NE,44,4.0,4.0,63,0.00,,,0.00,Wunderground v.1.15,2013-05-05 12:50:00,
2013-05-05 08:55:00,58.8,45.4,30.13,ESE,120,3.0,4.0,61,0.00,,,0.00,Wunderground v.1.15,2013-05-05 12:55:00,
2013-05-05 09:00:00,58.8,45.4,30.13,ESE,110,3.0,3.0,61,0.00,,,0.00,Wunderground v.1.15,2013-05-05 13:00:00,
2013-05-05 09:10:00,58.8,45.4,30.13,ENE,65,4.0,4.0,61,0.00,,,0.00,Wunderground v.1.15,2013-05-05 13:10:00,
2013-05-05 09:20:00,59.2,44.9,30.13,ENE,73,3.0,3.0,59,0.00,,,0.00,Wunderground v.1.15,2013-05-05 13:20:00,
2013-05-05 09:30:00,59.3,45.4,30.13,NE,52,3.0,3.0,60,0.00,,,0.00,Wunderground v.1.15,2013-05-05 13:30:00,
2013-05-05 09:35:00,59.7,44.9,30.13,NNE,30,3.0,3.0,58,0.00,,,0.00,Wunderground v.1.15,2013-05-05 13:35:00,
2013-05-05 09:45:00,59.9,44.6,30.13,ENE,67,4.0,5.0,57,0.00,,,0.00,Wunderground v.1.15,2013-05-05 13:45:00,
2013-05-05 09:50:00,59.9,43.7,30.13,East,92,4.0,4.0,55,0.00,,,0.00,Wunderground v.1.15,2013-05-05 13:50:00,
2013-05-05 10:00:00,60.5,45.2,30.13,NE,47,3.0,3.0,57,0.00,,,0.00,Wunderground v.1.15,2013-05-05 14:00:00,
2013-05-05 10:10:00,60.7,43.5,30.13,NE,44,4.0,6.0,53,0.00,,,0.00,Wunderground v.1.15,2013-05-05 14:10:00,
2013-05-05 10:15:00,60.5,43.8,30.13,ENE,69,5.0,6.0,54,0.00,,,0.00,Wunderground v.1.15,2013-05-05 14:15:00,
2013-05-05 10:25:00,60.9,44.6,30.12,ENE,75,5.0,6.0,55,0.00,,,0.00,Wunderground v.1.15,2013-05-05 14:25:00,
2013-05-05 10:30:00,60.8,44.5,30.13,ENE,64,5.0,5.0,55,0.00,,,0.00,Wunderground v.1.15,2013-05-05 14:30:00,
2013-05-05 10:40:00,61.2,43.4,30.13,ENE,67,5.0,7.0,52,0.00,,,0.00,Wunderground v.1.15,2013-05-05 14:40:00,
2013-05-05 10:50:00,61.1,42.8,30.13,ENE,70,6.0,6.0,51,0.00,,,0.00,Wunderground v.1.15,2013-05-05 14:50:00,
2013-05-05 11:00:00,61.4,42.6,30.13,ENE,63,4.0,4.0,50,0.00,,,0.00,Wunderground v.1.15,2013-05-05 15:00:00,
2013-05-05 11:10:00,62.2,41.7,30.13,NE,54,4.0,4.0,47,0.00,,,0.00,Wunderground v.1.15,2013-05-05 15:10:00,
2013-05-05 11:20:00,62.2,41.7,30.13,ENE,62,4.0,7.0,47,0.00,,,0.00,Wunderground v.1.15,2013-05-05 15:20:00,
2013-05-05 11:25:00,62.6,43.2,30.13,East,99,4.0,7.0,49,0.00,,,0.00,Wunderground v.1.15,2013-05-05 15:25:00,
2013-05-05 11:35:00,62.4,41.3,30.13,NE,52,5.0,6.0,46,0.00,,,0.00,Wunderground v.1.15,2013-05-05 15:35:00,
2013-05-05 11:40:00,62.4,43.0,30.13,East,89,5.0,5.0,49,0.00,,,0.00,Wunderground v.1.15,2013-05-05 15:40:00,
2013-05-05 11:50:00,62.3,41.8,30.13,SE,142,5.0,5.0,47,0.00,,,0.00,Wunderground v.1.15,2013-05-05 15:50:00,
2013-05-05 11:55:00,62.6,43.7,30.13,ESE,106,5.0,5.0,50,0.00,,,0.00,Wunderground v.1.15,2013-05-05 15:55:00,
2013-05-05 12:00:00,62.5,42.0,30.13,NE,50,5.0,5.0,47,0.00,,,0.00,Wunderground v.1.15,2013-05-05 16:00:00,
2013-05-05 12:10:00,62.7,41.6,30.13,NE,51,5.0,5.0,46,0.00,,,0.00,Wunderground v.1.15,2013-05-05 16:10:00,
2013-05-05 12:20:00,63.7,42.5,30.12,ENE,65,4.0,5.0,46,0.00,,,0.00,Wunderground v.1.15,2013-05-05 16:20:00,
2013-05-05 12:30:00,64.0,43.9,30.11,ENE,77,4.0,4.0,48,0.00,,,0.00,Wunderground v.1.15,2013-05-05 16:30:00,
2013-05-05 12:35:00,64.0,45.0,30.11,NE,46,4.0,4.0,50,0.00,,,0.00,Wunderground v.1.15,2013-05-05 16:35:00,
2013-05-05 12:45:00,64.1,44.0,30.10,NNE,13,5.0,6.0,48,0.00,,,0.00,Wunderground v.1.15,2013-05-05 16:45:00,
2013-05-05 12:50:00,64.8,44.1,30.10,NE,39,4.0,4.0,47,0.00,,,0.00,Wunderground v.1.15,2013-05-05 16:50:00,
2013-05-05 13:00:00,64.5,43.3,30.10,NNE,18,5.0,7.0,46,0.00,,,0.00,Wunderground v.1.15,2013-05-05 17:00:00,
2013-05-05 13:10:00,64.2,41.8,30.10,ENE,76,6.0,10.0,44,0.00,,,0.00,Wunderground v.1.15,2013-05-05 17:10:00,
2013-05-05 13:15:00,64.0,42.2,30.10,ENE,67,6.0,10.0,45,0.00,,,0.00,Wunderground v.1.15,2013-05-05 17:15:00,
2013-05-05 13:25:00,64.5,42.1,30.09,NE,56,6.0,12.0,44,0.00,,,0.00,Wunderground v.1.15,2013-05-05 17:25:00,
2013-05-05 13:30:00,65.0,43.7,30.10,East,95,6.0,6.0,46,0.00,,,0.00,Wunderground v.1.15,2013-05-05 17:30:00,
2013-05-05 13:40:00,65.8,43.3,30.10,NE,37,5.0,5.0,44,0.00,,,0.00,Wunderground v.1.15,2013-05-05 17:40:00,
2013-05-05 13:45:00,65.6,42.5,30.10,ENE,59,5.0,8.0,43,0.00,,,0.00,Wunderground v.1.15,2013-05-05 17:45:00,
2013-05-05 13:55:00,65.9,40.9,30.10,East,89,5.0,12.0,40,0.00,,,0.00,Wunderground v.1.15,2013-05-05 17:55:00,
2013-05-05 14:00:00,65.7,42.6,30.10,ENE,62,6.0,7.0,43,0.00,,,0.00,Wunderground v.1.15,2013-05-05 18:00:00,
2013-05-05 14:10:00,64.8,39.2,30.10,ENE,77,7.0,7.0,39,0.00,,,0.00,Wunderground v.1.15,2013-05-05 18:10:00,
2013-05-05 14:15:00,64.7,40.4,30.09,SE,132,6.0,7.0,41,0.00,,,0.00,Wunderground v.1.15,2013-05-05 18:15:00,
2013-05-05 14:25:00,65.7,40.7,30.09,South,179,6.0,9.0,40,0.00,,,0.00,Wunderground v.1.15,2013-05-05 18:25:00,
2013-05-05 14:30:00,66.3,39.9,30.09,SSE,149,6.0,8.0,38,0.00,,,0.00,Wunderground v.1.15,2013-05-05 18:30:00,
2013-05-05 14:40:00,65.9,39.6,30.09,NE,53,7.0,9.0,38,0.00,,,0.00,Wunderground v.1.15,2013-05-05 18:40:00,
2013-05-05 14:50:00,65.5,39.2,30.09,East,97,7.0,7.0,38,0.00,,,0.00,Wunderground v.1.15,2013-05-05 18:50:00,
2013-05-05 15:00:00,66.7,41.6,30.09,ENE,63,5.0,5.0,40,0.00,,,0.00,Wunderground v.1.15,2013-05-05 19:00:00,
2013-05-05 15:10:00,67.1,40.6,30.09,East,81,6.0,13.0,38,0.00,,,0.00,Wunderground v.1.15,2013-05-05 19:10:00,
2013-05-05 15:20:00,66.9,39.8,30.08,NE,54,6.0,7.0,37,0.00,,,0.00,Wunderground v.1.15,2013-05-05 19:20:00,
2013-05-05 15:25:00,66.9,39.8,30.08,ENE,72,6.0,7.0,37,0.00,,,0.00,Wunderground v.1.15,2013-05-05 19:25:00,
2013-05-05 15:35:00,66.8,40.4,30.08,East,94,6.0,11.0,38,0.00,,,0.00,Wunderground v.1.15,2013-05-05 19:35:00,
2013-05-05 15:40:00,66.6,39.5,30.08,ENE,78,6.0,6.0,37,0.00,,,0.00,Wunderground v.1.15,2013-05-05 19:40:00,
2013-05-05 15:50:00,67.0,41.2,30.08,ENE,65,5.0,5.0,39,0.00,,,0.00,Wunderground v.1.15,2013-05-05 19:50:00,
2013-05-05 15:55:00,67.4,40.2,30.07,ENE,61,4.0,5.0,37,0.00,,,0.00,Wunderground v.1.15,2013-05-05 19:55:00,
2013-05-05 16:00:00,67.6,40.4,30.07,ESE,104,4.0,4.0,37,0.00,,,0.00,Wunderground v.1.15,2013-05-05 20:00:00,
2013-05-05 16:10:00,67.1,39.9,30.07,East,82,6.0,15.0,37,0.00,,,0.00,Wunderground v.1.15,2013-05-05 20:10:00,
2013-05-05 16:20:00,67.5,39.6,30.06,NE,47,6.0,6.0,36,0.00,,,0.00,Wunderground v.1.15,2013-05-05 20:20:00,
2013-05-05 16:30:00,68.1,40.1,30.06,East,93,4.0,6.0,36,0.00,,,0.00,Wunderground v.1.15,2013-05-05 20:30:00,
2013-05-05 16:35:00,68.6,40.6,30.06,East,86,4.0,6.0,36,0.00,,,0.00,Wunderground v.1.15,2013-05-05 20:35:00,
2013-05-05 16:45:00,68.6,39.1,30.06,ENE,60,5.0,10.0,34,0.00,,,0.00,Wunderground v.1.15,2013-05-05 20:45:00,
2013-05-05 16:55:00,68.3,38.8,30.06,NE,54,6.0,6.0,34,0.00,,,0.00,Wunderground v.1.15,2013-05-05 20:55:00,
2013-05-05 17:00:00,68.7,41.4,30.06,ENE,62,5.0,7.0,37,0.00,,,0.00,Wunderground v.1.15,2013-05-05 21:00:00,
2013-05-05 17:10:00,68.4,41.8,30.05,NNE,26,4.0,4.0,38,0.00,,,0.00,Wunderground v.1.15,2013-05-05 21:10:00,
2013-05-05 17:15:00,68.2,40.9,30.05,NE,56,5.0,5.0,37,0.00,,,0.00,Wunderground v.1.15,2013-05-05 21:15:00,
2013-05-05 17:25:00,67.8,41.3,30.05,East,98,5.0,5.0,38,0.00,,,0.00,Wunderground v.1.15,2013-05-05 21:25:00,
2013-05-05 17:35:00,67.5,43.6,30.05,ENE,58,5.0,5.0,42,0.00,,,0.00,Wunderground v.1.15,2013-05-05 21:35:00,
2013-05-05 17:45:00,67.5,43.0,30.05,East,90,4.0,6.0,41,0.00,,,0.00,Wunderground v.1.15,2013-05-05 21:45:00,
2013-05-05 17:55:00,67.5,43.6,30.05,ENE,61,3.0,8.0,42,0.00,,,0.00,Wunderground v.1.15,2013-05-05 21:55:00,
2013-05-05 18:00:00,67.4,43.5,30.05,East,84,3.0,3.0,42,0.00,,,0.00,Wunderground v.1.15,2013-05-05 22:00:00,
2013-05-05 18:10:00,66.6,44.0,30.05,ESE,122,4.0,4.0,44,0.00,,,0.00,Wunderground v.1.15,2013-05-05 22:10:00,
2013-05-05 18:15:00,66.1,44.7,30.05,East,82,4.0,4.0,46,0.00,,,0.00,Wunderground v.1.15,2013-05-05 22:15:00,
2013-05-05 18:25:00,65.9,45.6,30.05,East,94,3.0,4.0,48,0.00,,,0.00,Wunderground v.1.15,2013-05-05 22:25:00,
2013-05-05 18:35:00,65.5,45.3,30.05,NE,53,3.0,3.0,48,0.00,,,0.00,Wunderground v.1.15,2013-05-05 22:35:00,
2013-05-05 18:40:00,65.1,45.5,30.05,ENE,61,4.0,7.0,49,0.00,,,0.00,Wunderground v.1.15,2013-05-05 22:40:00,
2013-05-05 18:50:00,65.0,45.4,30.05,NE,41,3.0,4.0,49,0.00,,,0.00,Wunderground v.1.15,2013-05-05 22:50:00,
2013-05-05 18:55:00,65.0,45.4,30.05,ENE,57,3.0,4.0,49,0.00,,,0.00,Wunderground v.1.15,2013-05-05 22:55:00,
2013-05-05 19:00:00,65.0,44.8,30.04,SE,126,2.0,2.0,48,0.00,,,0.00,Wunderground v.1.15,2013-05-05 23:00:00,
2013-05-05 19:10:00,64.6,44.5,30.04,ENE,68,3.0,3.0,48,0.00,,,0.00,Wunderground v.1.15,2013-05-05 23:10:00,
2013-05-05 19:20:00,64.2,45.7,30.04,NNW,345,2.0,2.0,51,0.00,,,0.00,Wunderground v.1.15,2013-05-05 23:20:00,
2013-05-05 19:30:00,63.8,44.8,30.04,ENE,78,3.0,3.0,50,0.00,,,0.00,Wunderground v.1.15,2013-05-05 23:30:00,
2013-05-05 19:35:00,63.5,44.5,30.04,ENE,76,3.0,4.0,50,0.00,,,0.00,Wunderground v.1.15,2013-05-05 23:35:00,
2013-05-05 19:45:00,63.3,44.9,30.04,East,88,2.0,3.0,51,0.00,,,0.00,Wunderground v.1.15,2013-05-05 23:45:00,
2013-05-05 19:50:00,63.3,44.9,30.04,ENE,70,2.0,3.0,51,0.00,,,0.00,Wunderground v.1.15,2013-05-05 23:50:00,
2013-05-05 20:01:00,62.9,45.0,30.04,East,82,2.0,4.0,52,0.00,,,0.00,Wunderground v.1.15,2013-05-06 00:01:00,
2013-05-05 20:10:00,62.5,44.6,30.04,ESE,110,2.0,2.0,52,0.00,,,0.00,Wunderground v.1.15,2013-05-06 00:10:00,
2013-05-05 20:20:00,62.1,44.3,30.04,East,89,2.0,2.0,52,0.00,,,0.00,Wunderground v.1.15,2013-05-06 00:20:00,
2013-05-05 20:30:00,61.7,43.9,30.04,East,82,1.0,2.0,52,0.00,,,0.00,Wunderground v.1.15,2013-05-06 00:30:00,
2013-05-05 20:35:00,61.5,44.2,30.05,East,91,1.0,2.0,53,0.00,,,0.00,Wunderground v.1.15,2013-05-06 00:35:00,
2013-05-05 20:45:00,61.1,44.3,30.04,East,84,0.0,1.0,54,0.00,,,0.00,Wunderground v.1.15,2013-05-06 00:45:00,
2013-05-05 20:55:00,60.4,43.2,30.05,ENE,78,0.0,0.0,53,0.00,,,0.00,Wunderground v.1.15,2013-05-06 00:55:00,
2013-05-05 21:00:00,60.4,42.7,30.05,ENE,68,0.0,0.0,52,0.00,,,0.00,Wunderground v.1.15,2013-05-06 01:00:00,
2013-05-05 21:10:00,60.4,42.2,30.05,East,89,0.0,1.0,51,0.00,,,0.00,Wunderground v.1.15,2013-05-06 01:10:00,
2013-05-05 21:15:00,60.4,41.7,30.05,ENE,67,0.0,1.0,50,0.00,,,0.00,Wunderground v.1.15,2013-05-06 01:15:00,
2013-05-05 21:25:00,60.2,41.5,30.05,NNW,346,0.0,0.0,50,0.00,,,0.00,Wunderground v.1.15,2013-05-06 01:25:00,
2013-05-05 21:35:00,59.9,41.7,30.05,NNW,346,0.0,0.0,51,0.00,,,0.00,Wunderground v.1.15,2013-05-06 01:35:00,
2013-05-05 21:40:00,59.8,41.6,30.05,NNW,347,0.0,0.0,51,0.00,,,0.00,Wunderground v.1.15,2013-05-06 01:40:00,
2013-05-05 21:50:00,59.5,41.9,30.05,NNW,346,0.0,0.0,52,0.00,,,0.00,Wunderground v.1.15,2013-05-06 01:50:00,
2013-05-05 22:00:00,59.1,42.9,30.05,NNW,346,0.0,0.0,55,0.00,,,0.00,Wunderground v.1.15,2013-05-06 02:00:00,
2013-05-05 22:10:00,58.6,42.9,30.05,NNW,347,0.0,0.0,56,0.00,,,0.00,Wunderground v.1.15,2013-05-06 02:10:00,
2013-05-05 22:20:00,57.9,43.2,30.05,NNW,346,0.0,0.0,58,0.00,,,0.00,Wunderground v.1.15,2013-05-06 02:20:00,
2013-05-05 22:30:00,57.8,43.1,30.05,NNW,346,0.0,0.0,58,0.00,,,0.00,Wunderground v.1.15,2013-05-06 02:30:00,
2013-05-05 22:35:00,57.5,43.7,30.05,NNW,346,0.0,0.0,60,0.00,,,0.00,Wunderground v.1.15,2013-05-06 02:35:00,
2013-05-05 22:45:00,57.0,43.7,30.05,NNW,346,0.0,0.0,61,0.00,,,0.00,Wunderground v.1.15,2013-05-06 02:45:00,
2013-05-05 22:55:00,56.6,43.3,30.05,NNW,346,0.0,0.0,61,0.00,,,0.00,Wunderground v.1.15,2013-05-06 02:55:00,
2013-05-05 23:00:00,56.6,42.9,30.05,NNW,346,0.0,0.0,60,0.00,,,0.00,Wunderground v.1.15,2013-05-06 03:00:00,
2013-05-05 23:10:00,57.4,42.7,30.05,ENE,66,0.0,0.0,58,0.00,,,0.00,Wunderground v.1.15,2013-05-06 03:10:00,
2013-05-05 23:15:00,57.6,42.5,30.05,East,92,0.0,0.0,57,0.00,,,0.00,Wunderground v.1.15,2013-05-06 03:15:00,
2013-05-05 23:25:00,58.2,42.6,30.05,NNE,30,0.0,0.0,56,0.00,,,0.00,Wunderground v.1.15,2013-05-06 03:25:00,
2013-05-05 23:35:00,58.4,42.8,30.05,NNE,20,0.0,1.0,56,0.00,,,0.00,Wunderground v.1.15,2013-05-06 03:35:00,
2013-05-05 23:45:00,58.7,43.0,30.05,NE,38,1.0,1.0,56,0.00,,,0.00,Wunderground v.1.15,2013-05-06 03:45:00,
2013-05-05 23:55:00,58.8,43.6,30.05,NNE,17,1.0,1.0,57,0.00,,,0.00,Wunderground v.1.15,2013-05-06 03:55:00,